This demonstration page uses our WeatherBlox Daily Observations layout. Learn more.

Left ArrowRight Arrow

41.55636, -103.73856

Hourly Observations for March 3, 2015

Temp ( °F °C ) Dew Point ( °F °C ) Humidity (%) Winds ( mph kmh ) Pressure ( in mb ) Visibility ( mi km ) Precip ( " mm )
12:01 am 00:01 Mostly Cloudy with Light Snow 29 -1.7 28 -2.2 96 96 NE 10 17 29.71 1006 1 1 0.01 0.25
12:07 am 00:07 Cloudy with Light Snow 29 -1.7 27 -2.8 92 92 NE 5 7 29.74 1007 1 2 0.02 0.51
12:26 am 00:26 Cloudy with Light Snow 29 -1.7 27 -2.8 92 92 ENE 7 11 29.71 1006 2 3 0.02 0.51
12:53 am 00:53 Cloudy with Light Snow 30 -1.1 27 -2.8 88 88 Calm 29.60 1003 3 5 0.02 0.51
1:53 am 01:53 Cloudy with Mist and Fog 29 -1.7 27 -2.8 92 92 NW 3 6 29.66 1004 4 6 0.00 0.03
2:22 am 02:22 Cloudy with Mist and Fog 28 -2 28 -2 100 100 NE 3 6 29.77 1008 4 6 0.00 0.00
2:53 am 02:53 Cloudy with Light Snow 30 -1.1 27 -2.8 88 88 N 13 20 29.70 1006 3 4 0.01 0.25
3:11 am 03:11 Cloudy with Light Snow 30 -1.1 27 -2.8 88 88 N 15 24 29.83 1010 2 3 0.00 0.03
3:46 am 03:46 Windy with Snow Likely 27 -2.8 22 -5.6 81 81 N 22 35 29.88 1012 3 4 0.01 0.25
3:53 am 03:53 Windy with Snow Likely 27 -2.8 22 -5.6 81 81 N 20 31 29.78 1009 4 6 0.01 0.25
4:04 am 04:04 Windy with Snow Likely 27 -3 21 -6 80 80 NNE 20 31 29.91 1013 5 8 0.00 0.00
4:53 am 04:53 Cloudy 25 -3.9 19 -7.2 78 78 N 16 26 29.85 1011 10 16 0.00 0.03
5:40 am 05:40 Cloudy 25 -4 19 -7 80 80 N 13 20 30.00 1016 10 16 0.00 0.00
5:53 am 05:53 Cloudy 24 -4.4 19 -7.2 81 81 N 14 22 29.92 1013 10 16 0.00 0.00
6:53 am 06:53 Cloudy 19 -7.2 12 -11.1 74 74 N 17 28 30.01 1016 9 14 0.00 0.03
7:08 am 07:08 Cloudy with Light Snow 19 -7 12 -11 73 73 NNW 13 20 30.15 1021 2 3 0.00 0.00
7:19 am 07:19 Windy with Snow Likely 19 -7.2 12 -11.1 74 74 NNW 21 33 30.15 1021 3 5 0.00 0.03
7:25 am 07:25 Cloudy with Light Snow 19 -7.2 12 -11.1 74 74 NNW 18 30 30.15 1021 3 4 0.00 0.03
7:53 am 07:53 Cloudy with Light Snow 18 -7.8 12 -11.1 77 77 N 18 30 30.06 1018 3 4 0.00 0.03
8:04 am 08:04 Cloudy with Light Snow 18 -8 10 -12 73 73 N 17 28 30.21 1023 3 5 0.00 0.00
8:11 am 08:11 Cloudy with Light Snow 18 -7.8 12 -11.1 77 77 N 15 24 30.21 1023 2 3 0.00 0.03
8:20 am 08:20 Cloudy with Light Snow 18 -8 12 -11 79 79 NNW 14 22 30.21 1023 1 1 0.00 0.00
8:36 am 08:36 Cloudy with Light Snow 18 -7.8 12 -11.1 77 77 NNW 14 22 30.21 1023 1 2 0.00 0.03
8:51 am 08:51 Cloudy with Light Snow 18 -8 10 -12 73 73 N 17 28 30.21 1023 3 5 0.00 0.03
8:52 am 08:52 Cloudy with Light Snow 18 -7.8 10 -12.2 71 71 N 16 26 30.09 1019 3 5 0.00 0.03
9:15 am 09:15 Cloudy with Light Snow 18 -7.8 10 -12.2 71 71 N 16 26 30.21 1023 7 11 0.00 0.03
9:53 am 09:53 Cloudy with Light Snow 19 -7.2 11 -11.7 71 71 N 12 19 30.09 1019 5 8 0.00 0.03
10:19 am 10:19 Cloudy with Light Snow 19 -7.2 10 -12.2 68 68 NNE 12 19 30.24 1024 3 5 0.00 0.03
10:48 am 10:48 Cloudy with Light Snow 19 -7 10 -12 68 68 N 10 17 30.24 1024 3 4 0.00 0.00
10:53 am 10:53 Cloudy with Light Snow 20 -6.7 11 -11.7 68 68 NNE 9 15 30.11 1020 3 4 0.00 0.03
11:24 am 11:24 Cloudy with Light Snow 21 -6 12 -11 68 68 VRB 6 9 30.21 1023 3 5 0.00 0.00
11:38 am 11:38 Cloudy with Light Snow 21 -6 12 -11 68 68 VRB 5 7 30.21 1023 3 4 0.00 0.00
11:53 am 11:53 Cloudy with Light Snow 21 -6.1 13 -10.6 71 71 NNE 6 9 30.10 1019 3 4 0.00 0.03
12:05 pm 12:05 Cloudy with Haze 21 -6.1 11 -11.7 65 65 undefined N/A 30.18 1022 6 10 0.00 0.03
12:35 pm 12:35 Cloudy with Light Snow 20 -6.7 13 -10.6 74 74 NW 10 17 30.18 1022 3 4 0.00 0.03
12:44 pm 12:44 Cloudy with Light Snow 21 -6 14 -10 74 74 NW 8 13 30.15 1021 1 2 0.00 0.00
12:53 pm 12:53 Cloudy with Light Snow 21 -6.1 13 -10.6 71 71 WNW 9 15 30.05 1018 2 3 0.00 0.03
1:15 pm 13:15 Cloudy 21 -6 10 -12 63 63 NNW 10 17 30.15 1021 8 13 0.00 0.00
1:53 pm 13:53 Cloudy 22 -5.6 10 -12.2 60 60 WNW 12 19 30.02 1017 10 16 0.00 0.03
2:53 pm 14:53 Cloudy 22 -5.6 9 -12.8 57 57 WNW 9 15 30.02 1017 10 16 0.00 0.00
3:53 pm 15:53 Cloudy 20 -6.7 7 -13.9 57 57 NW 10 17 30.04 1017 10 16 0.00 0.00
4:53 pm 16:53 Cloudy 19 -7.2 7 -13.9 59 59 NNW 10 17 30.07 1018 10 16 0.00 0.00
5:53 pm 17:53 Cloudy 18 -7.8 9 -12.8 68 68 NNW 10 17 30.09 1019 10 16 0.00 0.03
6:53 pm 18:53 Cloudy 17 -8.3 9 -12.8 70 70 NW 12 19 30.14 1021 10 16 0.00 0.00
7:53 pm 19:53 Cloudy 17 -8.3 9 -12.8 70 70 NNW 13 20 30.15 1021 10 16 0.00 0.00
8:53 pm 20:53 Cloudy 17 -8.3 9 -12.8 70 70 NW 8 13 30.17 1022 10 16 0.00 0.00
9:53 pm 21:53 Cloudy 16 -8.9 8 -13.3 71 71 NW 7 11 30.21 1023 10 16 0.00 0.00
10:53 pm 22:53 Cloudy 14 -10 7 -13.9 73 73 NW 8 13 30.22 1023 10 16 0.00 0.00
11:53 pm 23:53 Partly Cloudy 11 -11.7 6 -14.4 81 81 W 6 9 30.24 1024 10 16 0.00 0.00

Powered by AerisWeather